This demonstration page uses our WeatherBlox Daily Observations layout. Learn more.

Left ArrowRight Arrow

Hourly Observations for December 5, 2020

Temp ( °F °C ) Dew Point ( °F °C ) Humidity (%) Winds ( mph kmh ) Pressure ( in mb ) Visibility ( mi km ) Precip ( " mm )
12:15 am 00:15 Clear 35 1.7 21 -6.2 56 56 NW 9 15 30.28 1025 10 16 N/A
12:35 am 00:35 Clear 33 0.5 20 -6.5 60 60 NW 10 17 30.29 1026 10 16 N/A
12:55 am 00:55 Clear 34 0.9 21 -6.1 60 60 NW 10 17 30.29 1026 10 16 N/A
1:15 am 01:15 Clear 34 1 22 -5.8 61 61 NW 10 17 30.29 1026 10 16 N/A
1:35 am 01:35 Clear 34 1.1 21 -5.9 60 60 WNW 8 13 30.30 1026 10 16 N/A
1:55 am 01:55 Clear 32 undefined 20 -6.4 62 62 NW 10 17 30.31 1026 10 16 N/A
2:15 am 02:15 Clear 32 undefined 21 -6.1 64 64 NW 9 15 30.31 1026 10 16 N/A
2:35 am 02:35 Clear 32 -0.1 21 -6.1 64 64 NW 9 15 30.32 1027 10 16 N/A
2:55 am 02:55 Clear 31 -0.4 21 -6.1 66 66 NW 8 13 30.33 1027 10 16 N/A
3:15 am 03:15 Clear 32 undefined 20 -6.4 62 62 WNW 7 11 30.33 1027 10 16 N/A
3:35 am 03:35 Clear 32 -0.1 20 -6.6 62 62 NW 12 19 30.33 1027 10 16 N/A
3:55 am 03:55 Clear 30 -1 20 -6.4 67 67 NW 10 17 30.34 1027 10 16 N/A
4:15 am 04:15 Clear 29 -1.6 21 -6.3 71 71 NW 10 17 30.34 1027 10 16 N/A
4:35 am 04:35 Clear 31 -0.6 21 -6.2 66 66 WNW 7 11 30.34 1027 10 16 N/A
4:55 am 04:55 Clear 29 -1.5 20 -6.6 69 69 WNW 9 15 30.35 1028 10 16 N/A
5:15 am 05:15 Clear 30 -1 20 -6.5 67 67 WNW 8 13 30.35 1028 10 16 N/A
5:35 am 05:35 Clear 29 -1.6 20 -6.7 69 69 WNW 7 11 30.36 1028 10 16 N/A
5:55 am 05:55 Clear 30 -1 20 -6.6 66 66 W 8 13 30.36 1028 10 16 N/A
6:15 am 06:15 Clear 32 -0.2 21 -6.2 64 64 W 7 11 30.35 1028 10 16 N/A
6:35 am 06:35 Clear 32 -0.2 21 -6.2 64 64 WNW 8 13 30.35 1028 10 16 N/A
6:55 am 06:55 Clear 30 -0.9 20 -6.5 66 66 WNW 8 13 30.35 1028 10 16 N/A
7:15 am 07:15 Clear 31 -0.7 21 -6.2 67 67 WNW 7 11 30.36 1028 10 16 N/A
7:35 am 07:35 Clear 32 -0.1 21 -6.2 64 64 WNW 8 13 30.37 1028 10 16 N/A
7:55 am 07:55 Sunny 34 1 21 -6 60 60 WNW 9 15 30.36 1028 10 16 N/A
8:15 am 08:15 Sunny 34 1 21 -6 60 60 WNW 8 13 30.36 1028 10 16 N/A
8:35 am 08:35 Sunny 34 1 22 -5.8 61 61 WNW 9 15 30.37 1028 10 16 N/A
8:55 am 08:55 Sunny 34 1.1 22 -5.5 62 62 WNW 8 13 30.37 1028 10 16 N/A
9:15 am 09:15 Sunny 36 2.1 23 -4.8 61 61 WNW 8 13 30.36 1028 10 16 N/A
9:35 am 09:35 Sunny 39 4 25 -3.9 57 57 NW 12 19 30.35 1028 10 16 N/A
9:55 am 09:55 Sunny 40 4.7 25 -4 54 54 NNW 9 15 30.35 1028 10 16 N/A
10:15 am 10:15 Sunny 42 5.5 26 -3.5 53 53 NNW 9 15 30.34 1028 10 16 N/A
10:35 am 10:35 Sunny 44 6.9 26 -3.5 48 48 NNW 10 17 30.33 1027 10 16 N/A
10:55 am 10:55 Sunny 46 7.6 26 -3.4 46 46 NNW 9 15 30.32 1027 10 16 N/A
11:15 am 11:15 Sunny 47 8.6 26 -3.2 44 44 N 9 15 30.31 1026 10 16 N/A
11:35 am 11:35 Sunny 50 10.1 26 -3.4 39 39 NNW 12 19 30.28 1025 10 16 N/A
11:55 am 11:55 Sunny 52 11.2 26 -3.6 36 36 NNW 15 24 30.26 1025 10 16 N/A
12:15 pm 12:15 Sunny 53 11.5 25 -3.9 34 34 N 14 22 30.26 1025 10 16 N/A
12:35 pm 12:35 Sunny 54 12.1 25 -3.7 33 33 N 14 22 30.24 1024 10 16 N/A
12:55 pm 12:55 Sunny 54 12.4 26 -3.6 33 33 NNW 13 20 30.22 1023 10 16 N/A
1:15 pm 13:15 Sunny 55 12.9 26 -3.4 32 32 N 10 17 30.21 1023 10 16 N/A
1:35 pm 13:35 Sunny 56 13.5 27 -3 32 32 NNW 10 17 30.20 1023 10 16 N/A
1:55 pm 13:55 Sunny 57 13.7 27 -3 32 32 NNW 14 22 30.19 1022 10 16 N/A
2:15 pm 14:15 Sunny 57 14 27 -2.8 31 31 NNW 14 22 30.19 1022 10 16 N/A
2:35 pm 14:35 Sunny 57 14.1 28 -2.4 32 32 N 13 20 30.18 1022 10 16 N/A
2:55 pm 14:55 Sunny 57 14.1 28 -2.3 32 32 N 16 26 30.18 1022 10 16 N/A
3:15 pm 15:15 Sunny 57 13.7 28 -2.4 33 33 N 12 19 30.18 1022 10 16 N/A
3:35 pm 15:35 Sunny 56 13.5 28 -2.5 33 33 N 12 19 30.18 1022 10 16 N/A
3:55 pm 15:55 Sunny 56 13.3 28 -2.3 34 34 N 13 20 30.18 1022 10 16 N/A
4:15 pm 16:15 Sunny 55 12.8 28 -2.5 35 35 N 9 15 30.19 1022 10 16 N/A
4:35 pm 16:35 Sunny 54 12.1 28 -2.4 37 37 N 7 11 30.19 1022 10 16 N/A
4:55 pm 16:55 Sunny 52 11 28 -2.5 39 39 N 7 11 30.20 1023 10 16 N/A
5:15 pm 17:15 Clear 48 9 27 -2.8 44 44 N 5 7 30.23 1024 10 16 N/A
5:35 pm 17:35 Clear 46 7.7 27 -3 47 47 NNW 5 7 30.24 1024 10 16 N/A
5:55 pm 17:55 Clear 45 7.2 27 -3 49 49 NW 6 9 30.25 1024 10 16 N/A
6:15 pm 18:15 Clear 43 6 26 -3.1 52 52 NNW 6 9 30.26 1025 10 16 N/A
6:35 pm 18:35 Clear 41 4.8 25 -3.7 54 54 NW 3 6 30.27 1025 10 16 N/A
6:55 pm 18:55 Clear 36 2.4 23 -4.8 59 59 NW 3 6 30.29 1026 10 16 N/A
7:15 pm 19:15 Clear 36 2.2 23 -4.8 60 60 WNW 3 6 30.29 1026 10 16 N/A
7:35 pm 19:35 Clear 36 2.4 24 -4.6 60 60 WNW 5 7 30.28 1025 10 16 N/A
7:55 pm 19:55 Clear 35 1.9 24 -4.7 62 62 WNW 6 9 30.29 1026 10 16 N/A
8:15 pm 20:15 Clear 32 0.2 22 -5.5 66 66 WNW 5 7 30.31 1027 10 16 N/A
8:35 pm 20:35 Clear 35 1.4 24 -4.6 65 65 W 7 11 30.29 1026 10 16 N/A
8:55 pm 20:55 Clear 35 1.6 23 -4.8 63 63 WNW 8 13 30.29 1026 10 16 N/A
9:15 pm 21:15 Clear 32 0.2 22 -5.5 66 66 W 5 7 30.30 1026 10 16 N/A
9:35 pm 21:35 Clear 33 0.7 22 -5.4 64 64 WNW 7 11 30.30 1026 10 16 N/A
9:55 pm 21:55 Clear 33 0.5 22 -5.5 64 64 WNW 8 13 30.29 1026 10 16 N/A
10:15 pm 22:15 Clear 33 0.6 22 -5.4 65 65 WNW 7 11 30.29 1026 10 16 N/A
10:35 pm 22:35 Clear 33 0.7 22 -5.5 64 64 WNW 8 13 30.29 1026 10 16 N/A
10:55 pm 22:55 Clear 32 0.2 21 -5.9 64 64 WNW 8 13 30.28 1026 10 16 N/A
11:15 pm 23:15 Clear 32 undefined 21 -5.9 65 65 WNW 7 11 30.30 1026 10 16 N/A
11:35 pm 23:35 Clear 32 undefined 21 -6 64 64 WNW 8 13 30.29 1026 10 16 N/A
11:55 pm 23:55 Clear 32 undefined 22 -5.8 65 65 WNW 8 13 30.29 1026 10 16 N/A

Powered by AerisWeather